NAVSTAR 64 (USA 206) - Orbit

View from above orbital plane
View from above orbital plane
View from above satellite
View from above satellite

Ground track
Ground track

The orbit data is extracted from the following two-line orbital elements,

1 35752U 09043A   13145.31360906  .00000036  00000-0  00000+0 0  3813
2 35752 054.3581 219.6878 0029811 010.6189 073.5721 02.00568866 27664
Epoch (UTC): 25 May 2013 07:31:35
Eccentricity: 0.0029811
inclination: 54.3581°
perigee height: 20102 km
apogee height: 20261 km
right ascension of ascending node: 219.6878°
argument of perigee: 10.6189°
revolutions per day: 2.00568866
mean anomaly at epoch: 73.5721°
orbit number at epoch: 2766

The dashed part of the orbit path shows where the satellite is in the earth's shadow,  

Developed and maintained by Chris Peat, Heavens-Above GmbH. Please read the updated FAQ before sending e-mail. Imprint. DLR